Weather in Genichesk

Ukraine / Kherson District     46°10′35″N   34°47′56″E
temp.,
°C
wind,
m/s
gust,
m/s
humid.,
%
clouds,
%
prec.,
mm/h
press.,
hPa
HPBL,
m
20 may, fri
fri2000:00+12wnw4768100 0.0 1021150
03:00+13wnw5116398 0.0 1020257
06:00+11wnw477389 0.0 1021128
09:00+17wnw685542 0.0 1021583
12:00+20nw6741100 0.0 10211504
15:00+22nw673991 0.0 10201736
18:00+17wsw71165100 0.0 1019288
21:00+17wsw71266100 0.0 1019290
21 may, sat
sat2100:00+16wsw6116591 0.0 1019367
03:00+15wsw71571100 0.0 1018394
06:00+15wsw8167377 0.0 1016434
09:00+18wsw1014645 0.0 1015598
12:00+22wsw11155052 0.0 1014988
15:00+22wsw111552100 0.0 1013966
18:00+20wsw91457100 0.0 1012811
21:00+17sw9166463 0.0 1011433
22 may, sun
sun2200:00+16wsw8166390 0.0 1010427
03:00+16wsw81370100 0.0 1009370
06:00+16w71080100 0.1 1008440
09:00+15w3476100 0.9 1007309
12:00+19w68535 0.0 10061182
15:00+22w81142100 0.0 10042280
18:00+19nw9125699 0.0 10051168
21:00+15wnw611595 0.0 1006404
23 may, mon
mon2300:00+12wnw48725 0.0 1006181
03:00+11wnw59785 0.0 1006245
06:00+10wnw59835 0.0 1006360
09:00+12nw6767100 0.0 1007951
12:00+13nnw7766100 0.2 10071168
15:00+12n7871100 0.4 10081061
18:00+12nne696515 0.0 1009920
21:00+10nnw35757 0.1 1010158
24 may, tue
tue2400:00+9nnw447765 0.0 1012103
03:00+8nnw457670 0.0 1013100
06:00+8nnw46755 0.0 1014121
09:00+14n45535 0.0 10151096
12:00+16nnw2441100 0.0 10151994
15:00+17sw344285 0.1 10161843
18:00+17wsw444385 0.0 10171157
21:00+13w34625 0.0 101882